CW5834 Weather Reports


time (UTC)temp
C
wind
direction
speed
KPH
gust
KPH
rain 1hr
cm
rain 24hr
cm
rain mn
cm
humidity
%
barometer
mb
20260904060017 22 0.0 0.0 0.00 0.00 0.00 92 1019.2
20260904055017 22 0.0 1.6 0.00 0.00 0.00 92 1019.2
20260904054017 22 338 1.6 1.6 0.00 0.00 0.00 93 1019.3
20260904053017 22 338 1.6 1.6 0.00 0.00 0.00 92 1019.2
20260904052017 22 0.0 1.6 0.00 0.00 0.00 92 1019.4
20260904051037 22 0.0 3.2 0.00 0.00 0.00 92 1019.6
20260904050017 22 0.0 1.6 0.00 0.00 0.00 91 1019.5
20260904045017 22 0.0 0.0 0.00 0.00 0.00 91 1019.7
20260904044017 22 0.0 0.0 0.00 0.00 0.00 90 1019.7
20260904043017 22 0.0 0.0 0.00 0.00 0.00 90 1019.4
20260904042017 22 338 1.6 3.2 0.00 0.00 0.00 90 1019.4
20260904041017 22 0.0 0.0 0.00 0.00 0.00 90 1019.6
20260904040017 22 0.0 0.0 0.00 0.00 0.00 90 1019.6
20260904035016 23 0.0 1.6 0.00 0.00 0.00 90 1019.6
20260904034016 23 338 1.6 3.2 0.00 0.00 0.00 90 1019.6
20260904033016 23 0.0 0.0 0.00 0.00 0.00 89 1019.6
20260904032016 23 0.0 0.0 0.00 0.00 0.00 89 1019.5
20260904031016 23 0.0 3.2 0.00 0.00 0.00 89 1019.7
20260904030036 23 0.0 0.0 0.00 0.00 0.00 88 1019.5
20260904025016 23 0.0 1.6 0.00 0.00 0.00 88 1019.7
20260904024016 23 0.0 3.2 0.00 0.00 0.00 88 1019.6
20260904023016 23 0.0 1.6 0.00 0.00 0.00 88 1019.5
20260904022016 23 0.0 3.2 0.00 0.00 0.00 87 1019.4
20260904021036 23 0.0 0.0 0.00 0.00 0.00 87 1019.4
20260904020016 23 0.0 3.2 0.00 0.00 0.00 87 1019.2
20260904015016 24 0.0 1.6 0.00 0.00 0.00 87 1019.1
20260904014036 24 0.0 0.0 0.00 0.00 0.00 87 1019.1
20260904013016 24 0.0 3.2 0.00 0.00 0.00 86 1018.6
20260904012015 25 0.0 0.0 0.00 0.00 0.00 86 1018.4
20260904011016 25 0.0 0.0 0.00 0.00 0.00 85 1018.4
20260904010035 25 0.0 1.6 0.00 0.00 0.00 85 1018.3
20260904005036 25 0.0 0.0 0.00 0.00 0.00 83 1018.1
20260904004016 25 0.0 3.2 0.00 0.00 0.00 82 1018.0
20260904003016 26 0.0 0.0 0.00 0.00 0.00 81 1017.7
20260904002016 26 0.0 3.2 0.00 0.00 0.00 80 1017.8
20260904001035 26 0.0 3.2 0.00 0.00 0.00 78 1017.6
20260904000015 27 0.0 1.6 0.00 0.00 0.00 77 1017.6
20260903235015 27 0.0 3.2 0.00 0.00 0.00 75 1017.4
20260903234016 28 0.0 3.2 0.00 0.00 0.00 75 1017.4
20260903233015 29 0.0 1.6 0.00 0.00 0.00 74 1017.5
20260903232015 30 338 1.6 1.6 0.00 0.00 0.00 73 1017.4
20260903231016 30 338 1.6 1.6 0.00 0.00 0.00 70 1017.5
20260903230017 31 338 1.6 1.6 0.00 0.00 0.00 69 1017.6
20260903225035 32 338 1.6 1.6 0.00 0.00 0.00 65 1017.6
20260903224015 32 338 1.6 1.6 0.00 0.00 0.00 66 1017.7
20260903223015 32 315 1.6 3.2 0.00 0.00 0.00 62 1017.7
20260903222015 33 0 1.6 3.2 0.00 0.00 0.00 63 1017.7
20260903221018 33 315 1.6 3.2 0.00 0.00 0.00 58 1017.7
20260903220017 34 0 1.6 3.2 0.00 0.00 0.00 53 1018.0
20260903215017 34 338 3.2 4.8 0.00 0.00 0.00 52 1017.9
20260903214017 34 338 3.2 4.8 0.00 0.00 0.00 51 1017.9
20260903213017 34 315 3.2 4.8 0.00 0.00 0.00 48 1018.0
20260903212017 34 338 1.6 3.2 0.00 0.00 0.00 50 1018.2
20260903211017 35 0 1.6 4.8 0.00 0.00 0.00 47 1018.4
20260903210037 35 338 1.6 6.4 0.00 0.00 0.00 48 1018.4
20260903205038 35 0.0 3.2 0.00 0.00 0.00 50 1018.6
20260903204017 35 225 3.2 6.4 0.00 0.00 0.00 48 1018.5
20260903203017 34 180 1.6 6.4 0.00 0.00 0.00 46 1018.7
20260903202017 35 0.0 3.2 0.00 0.00 0.00 48 1018.8
20260903201017 34 135 1.6 6.4 0.00 0.00 0.00 48 1018.8
20260903200017 34 158 3.2 8.0 0.00 0.00 0.00 46 1018.9
20260903195017 34 23 1.6 4.8 0.00 0.00 0.00 52 1019.2
20260903194017 34 158 1.6 3.2 0.00 0.00 0.00 49 1019.2
20260903193017 34 180 3.2 8.0 0.00 0.00 0.00 47 1019.3
20260903192024 33 135 3.2 6.4 0.00 0.00 0.00 45 1019.4
20260903191017 34 135 3.2 6.4 0.00 0.00 0.00 49 1019.6
20260903190017 33 270 1.6 6.4 0.00 0.00 0.00 48 1019.5
20260903185017 33 180 3.2 8.0 0.00 0.00 0.00 49 1019.7
20260903184017 33 158 3.2 8.0 0.00 0.00 0.00 53 1019.8
20260903183017 33 203 4.8 9.7 0.00 0.00 0.00 53 1019.9
20260903182017 33 45 1.6 4.8 0.00 0.00 0.00 55 1020.1
20260903181017 33 113 3.2 11.3 0.00 0.00 0.00 56 1020.2
20260903180017 32 225 1.6 3.2 0.00 0.00 0.00 57 1020.3
20260903175017 32 0 3.2 9.7 0.00 0.00 0.00 55 1020.4
20260903174017 32 158 3.2 9.7 0.00 0.00 0.00 55 1020.6
20260903173037 33 180 1.6 6.4 0.00 0.00 0.00 56 1020.8
20260903172037 32 158 3.2 6.4 0.00 0.00 0.00 61 1020.8
20260903171017 32 158 1.6 6.4 0.00 0.00 0.00 61 1020.8
20260903170017 32 180 3.2 6.4 0.00 0.00 0.00 62 1020.9
20260903165016 32 135 3.2 6.4 0.00 0.00 0.00 62 1021.0
20260903164016 32 180 3.2 9.7 0.00 0.00 0.00 64 1021.1
20260903163017 32 315 1.6 4.8 0.00 0.00 0.00 62 1021.2
20260903162017 31 0 1.6 4.8 0.00 0.00 0.00 63 1021.1
20260903161017 31 113 1.6 6.4 0.00 0.00 0.00 62 1021.1
20260903160017 31 23 1.6 6.4 0.00 0.00 0.00 64 1021.3
20260903155016 31 135 3.2 6.4 0.00 0.00 0.00 66 1021.2
20260903154017 31 90 1.6 6.4 0.00 0.00 0.00 68 1021.3
20260903153016 30 113 1.6 3.2 0.00 0.00 0.00 67 1021.5
20260903152017 30 135 1.6 4.8 0.00 0.00 0.00 68 1021.4
20260903151017 30 203 3.2 6.4 0.00 0.00 0.00 71 1021.4
20260903150016 30 90 1.6 4.8 0.00 0.00 0.00 71 1021.4
20260903145017 29 113 1.6 4.8 0.00 0.00 0.00 70 1021.3
20260903144016 28 158 1.6 6.4 0.00 0.00 0.00 73 1021.2
20260903143016 28 158 3.2 6.4 0.00 0.00 0.00 73 1021.2
20260903142016 28 158 3.2 6.4 0.00 0.00 0.00 77 1021.3
20260903141016 27 90 1.6 4.8 0.00 0.00 0.00 77 1020.9
20260903140037 27 135 3.2 6.4 0.00 0.00 0.00 80 1021.0
20260903135016 27 135 1.6 4.8 0.00 0.00 0.00 81 1020.9
20260903134016 26 90 1.6 3.2 0.00 0.00 0.00 83 1020.9
20260903133016 26 113 1.6 4.8 0.00 0.00 0.00 82 1021.0
20260903132016 26 68 1.6 3.2 0.00 0.00 0.00 86 1021.1
20260903131016 25 113 1.6 3.2 0.00 0.00 0.00 88 1021.1
20260903130017 24 0.0 3.2 0.00 0.00 0.00 92 1021.1
20260903125016 23 90 1.6 4.8 0.00 0.00 0.00 93 1021.0
20260903124016 22 0.0 3.2 0.00 0.00 0.00 94 1020.9
20260903123016 22 0.0 3.2 0.00 0.00 0.00 94 1020.9
20260903122016 22 0.0 3.2 0.00 0.00 0.00 95 1020.9
20260903121016 21 0.0 3.2 0.00 0.00 0.00 96 1020.8
20260903120016 21 23 1.6 3.2 0.00 0.00 0.00 96 1020.8
20260903115016 21 0.0 3.2 0.00 0.00 0.00 95 1020.8
20260903114016 21 0.0 3.2 0.00 0.00 0.00 95 1020.6
20260903113016 20 0.0 0.0 0.00 0.00 0.00 95 1020.6
20260903112036 21 0.0 3.2 0.00 0.00 0.00 95 1020.4
20260903111016 21 23 1.6 1.6 0.00 0.00 0.00 95 1020.3
20260903110016 21 0.0 1.6 0.00 0.00 0.00 95 1020.3
20260903105016 21 0.0 0.0 0.00 0.00 0.00 95 1020.2
20260903104016 21 0.0 3.2 0.00 0.00 0.00 95 1020.1
20260903103016 21 0.0 3.2 0.00 0.00 0.00 95 1020.3
20260903102016 21 0.0 1.6 0.00 0.00 0.00 95 1020.2
20260903101016 21 0.0 1.6 0.00 0.00 0.00 95 1020.2
20260903100016 21 0.0 0.0 0.00 0.00 0.00 95 1020.1
20260903095016 21 0.0 3.2 0.00 0.00 0.00 95 1020.2
20260903094016 21 0.0 3.2 0.00 0.00 0.00 94 1020.1
20260903093016 21 0.0 1.6 0.00 0.00 0.00 95 1020.2
20260903092016 21 0.0 3.2 0.00 0.00 0.00 94 1020.2
20260903091036 21 0.0 3.2 0.00 0.00 0.00 94 1020.0
20260903090015 21 0.0 1.6 0.00 0.00 0.00 94 1020.0
20260903085016 21 0.0 0.0 0.00 0.00 0.00 94 1020.1
20260903084016 21 0.0 3.2 0.00 0.00 0.00 94 1020.2
20260903083016 21 0.0 1.6 0.00 0.00 0.00 94 1020.2
20260903082016 21 0.0 1.6 0.00 0.00 0.00 94 1020.1
20260903081015 21 23 1.6 1.6 0.00 0.00 0.00 94 1020.1
20260903080015 21 0.0 1.6 0.00 0.00 0.00 94 1020.1
20260903075015 21 0.0 3.2 0.00 0.00 0.00 93 1020.2
20260903074016 22 0.0 3.2 0.00 0.00 0.00 93 1020.2
20260903073016 22 0.0 1.6 0.00 0.00 0.00 93 1020.1
20260903072015 22 0 1.6 3.2 0.00 0.00 0.00 93 1020.0
20260903071016 22 0.0 0.0 0.00 0.00 0.00 93 1020.0
20260903070015 22 23 1.6 3.2 0.00 0.00 0.00 93 1020.0
20260903065036 22 23 1.6 1.6 0.00 0.00 0.00 93 1020.0
20260903064016 22 0.0 3.2 0.00 0.00 0.00 93 1020.2
20260903063015 22 0.0 1.6 0.00 0.00 0.00 93 1020.0
20260903062017 22 0.0 0.0 0.00 0.00 0.00 92 1020.2
20260903061017 22 0.0 3.2 0.00 0.00 0.00 92 1020.3